OAL929 FMCH-HCMM

Flight info

Callsign OAL929
Flight time 2h 15m
Altitude 37000
Route VOHID UN305 BERIL UR775 MITCH UM665 RAGGS DCT UDLOS
Aircraft B738/M-V/N

Departure

Time 2026-04-20 10:15
Airport Prince Said Ibrahim International Airport (FMCH)

Arrival

Time 2026-04-20 12:30
Airport Aden Adde International Airport (HCMM)
Time Latitude Longitude Altitude Speed Heading
2026-04-20 10:09 -11.52131 43.27411 93 ft 0 kts 190°
2026-04-20 10:14 -11.52262 43.27388 87 ft 58 kts 189°
2026-04-20 10:14 -11.52942 43.27269 88 ft 137 kts 190°
2026-04-20 10:14 -11.54070 43.27063 381 ft 176 kts 188°
2026-04-20 10:15 -11.55309 43.26874 1277 ft 191 kts 176°
2026-04-20 10:15 -11.56636 43.27372 1612 ft 225 kts 136°
2026-04-20 10:15 -11.57356 43.28813 2162 ft 242 kts 98°
2026-04-20 10:15 -11.57040 43.30535 2584 ft 260 kts 59°
2026-04-20 10:16 -11.55777 43.31887 3442 ft 266 kts 45°
2026-04-20 10:16 -11.54671 43.33369 4348 ft 261 kts 60°
2026-04-20 10:16 -11.53730 43.34974 5142 ft 267 kts 60°
2026-04-20 10:16 -11.52745 43.36565 6038 ft 267 kts 59°
2026-04-20 10:17 -11.51734 43.38182 6760 ft 272 kts 59°
2026-04-20 10:17 -11.50711 43.39816 7537 ft 275 kts 59°
2026-04-20 10:17 -11.49680 43.41467 8282 ft 278 kts 59°
2026-04-20 10:17 -11.48638 43.43139 9001 ft 281 kts 59°
2026-04-20 10:18 -11.47586 43.44832 9742 ft 284 kts 59°
2026-04-20 10:18 -11.46518 43.46551 10324 ft 292 kts 59°
2026-04-20 10:18 -11.45389 43.48374 10461 ft 316 kts 59°
2026-04-20 10:18 -11.44179 43.50328 10624 ft 336 kts 59°
2026-04-20 10:19 -11.42893 43.52405 10771 ft 356 kts 59°
2026-04-20 10:19 -11.41549 43.54575 11093 ft 366 kts 58°
2026-04-20 10:19 -11.40183 43.56778 11644 ft 370 kts 58°
2026-04-20 10:19 -11.38805 43.59002 12220 ft 372 kts 58°
2026-04-20 10:20 -11.37415 43.61243 12760 ft 376 kts 58°
2026-04-20 10:20 -11.36007 43.63515 13274 ft 380 kts 58°
2026-04-20 10:20 -11.34599 43.65787 13788 ft 383 kts 58°
2026-04-20 10:20 -11.33173 43.68086 14243 ft 386 kts 58°
2026-04-20 10:21 -11.31733 43.70408 14681 ft 390 kts 58°
2026-04-20 10:21 -11.30256 43.72789 15119 ft 394 kts 58°
2026-04-20 10:21 -11.28797 43.75141 15537 ft 398 kts 58°
2026-04-20 10:21 -11.27309 43.77540 15962 ft 401 kts 58°
2026-04-20 10:22 -11.25817 43.79945 16386 ft 404 kts 58°
2026-04-20 10:22 -11.24310 43.82371 16785 ft 408 kts 58°
2026-04-20 10:22 -11.22773 43.84846 17173 ft 412 kts 58°
2026-04-20 10:22 -11.21240 43.87314 17576 ft 415 kts 58°
2026-04-20 10:23 -11.19695 43.89803 17963 ft 418 kts 58°
2026-04-20 10:23 -11.18134 43.92314 18305 ft 422 kts 58°
2026-04-20 10:23 -11.16554 43.94856 18635 ft 425 kts 59°
2026-04-20 10:23 -11.14983 43.97382 19012 ft 426 kts 59°
2026-04-20 10:24 -11.13375 43.99969 19411 ft 427 kts 59°
2026-04-20 10:24 -11.11787 44.02521 19756 ft 429 kts 59°
2026-04-20 10:24 -11.10209 44.05059 20087 ft 431 kts 59°
2026-04-20 10:24 -11.08588 44.07664 20426 ft 433 kts 59°
2026-04-20 10:25 -11.06977 44.10252 20759 ft 434 kts 59°
2026-04-20 10:25 -11.05357 44.12854 21095 ft 436 kts 59°
2026-04-20 10:25 -11.03729 44.15467 21403 ft 438 kts 59°
2026-04-20 10:25 -11.02096 44.18088 21723 ft 439 kts 59°
2026-04-20 10:26 -11.00456 44.20721 22036 ft 441 kts 59°
2026-04-20 10:26 -10.98811 44.23362 22334 ft 443 kts 59°
2026-04-20 10:26 -10.97158 44.26013 22612 ft 445 kts 59°
2026-04-20 10:26 -10.95500 44.28674 22894 ft 446 kts 59°
2026-04-20 10:27 -10.93835 44.31344 23187 ft 448 kts 59°
2026-04-20 10:27 -10.92183 44.34040 23454 ft 449 kts 60°
2026-04-20 10:27 -10.90609 44.36795 23672 ft 451 kts 62°
2026-04-20 10:27 -10.89077 44.39580 23881 ft 453 kts 62°
2026-04-20 10:28 -10.87543 44.42405 24085 ft 455 kts 62°
2026-04-20 10:28 -10.86013 44.45222 24281 ft 457 kts 62°
2026-04-20 10:28 -10.84454 44.48076 24472 ft 459 kts 62°
2026-04-20 10:28 -10.82898 44.50910 24670 ft 461 kts 62°
2026-04-20 10:29 -10.81340 44.53736 24873 ft 462 kts 62°
2026-04-20 10:29 -10.79757 44.56596 25057 ft 464 kts 62°
2026-04-20 10:29 -10.78178 44.59447 25219 ft 467 kts 62°
2026-04-20 10:29 -10.76578 44.62333 25407 ft 468 kts 62°
2026-04-20 10:30 -10.74969 44.65232 25604 ft 470 kts 62°
2026-04-20 10:30 -10.73356 44.68138 25781 ft 472 kts 62°
2026-04-20 10:30 -10.71742 44.71047 25943 ft 474 kts 62°
2026-04-20 10:30 -10.70125 44.73959 26115 ft 475 kts 62°
2026-04-20 10:31 -10.68501 44.76887 26302 ft 477 kts 62°
2026-04-20 10:31 -10.66849 44.79862 26472 ft 478 kts 62°
2026-04-20 10:31 -10.65229 44.82779 26631 ft 480 kts 62°
2026-04-20 10:31 -10.63569 44.85769 26787 ft 482 kts 62°
2026-04-20 10:32 -10.61914 44.88747 26960 ft 483 kts 62°
2026-04-20 10:32 -10.60251 44.91737 27122 ft 485 kts 62°
2026-04-20 10:32 -10.58611 44.94686 27268 ft 486 kts 62°
2026-04-20 10:32 -10.56939 44.97693 27421 ft 488 kts 62°
2026-04-20 10:33 -10.55263 45.00706 27577 ft 489 kts 62°
2026-04-20 10:33 -10.53587 45.03719 27720 ft 491 kts 62°
2026-04-20 10:33 -10.51899 45.06752 27845 ft 493 kts 62°
2026-04-20 10:33 -10.50207 45.09791 27987 ft 494 kts 62°
2026-04-20 10:34 -10.48508 45.12843 28155 ft 495 kts 62°
2026-04-20 10:34 -10.46811 45.15889 28354 ft 495 kts 62°
2026-04-20 10:34 -10.45117 45.18928 28571 ft 494 kts 62°
2026-04-20 10:35 -10.41750 45.24966 29004 ft 494 kts 62°
2026-04-20 10:35 -10.40056 45.28005 29180 ft 495 kts 62°
2026-04-20 10:35 -10.38358 45.31048 29401 ft 495 kts 62°
2026-04-20 10:35 -10.36665 45.34083 29654 ft 494 kts 62°
2026-04-20 10:36 -10.34975 45.37112 29895 ft 493 kts 62°
2026-04-20 10:36 -10.33282 45.40145 30085 ft 494 kts 62°
2026-04-20 10:36 -10.31586 45.43180 30247 ft 494 kts 62°
2026-04-20 10:36 -10.29891 45.46215 30434 ft 494 kts 62°
2026-04-20 10:37 -10.28194 45.49252 30651 ft 494 kts 62°
2026-04-20 10:37 -10.26500 45.52283 30867 ft 493 kts 61°
2026-04-20 10:37 -10.24807 45.55311 31057 ft 493 kts 61°
2026-04-20 10:37 -10.23114 45.58339 31238 ft 494 kts 61°
2026-04-20 10:38 -10.21418 45.61372 31440 ft 493 kts 61°
2026-04-20 10:38 -10.19725 45.64397 31664 ft 493 kts 61°
2026-04-20 10:38 -10.18033 45.67422 31881 ft 493 kts 61°
2026-04-20 10:38 -10.16339 45.70448 32084 ft 493 kts 61°
2026-04-20 10:39 -10.14648 45.73468 32289 ft 493 kts 61°
2026-04-20 10:39 -10.12955 45.76491 32513 ft 492 kts 61°
2026-04-20 10:39 -10.11264 45.79508 32742 ft 492 kts 60°
2026-04-20 10:39 -10.09580 45.82515 32951 ft 491 kts 60°
2026-04-20 10:40 -10.07883 45.85544 33157 ft 492 kts 60°
2026-04-20 10:40 -10.06202 45.88544 33359 ft 492 kts 60°
2026-04-20 10:40 -10.04501 45.91577 33600 ft 491 kts 60°
2026-04-20 10:40 -10.03365 45.93568 33751 ft 490 kts 57°
2026-04-20 10:41 -10.01168 45.96232 33692 ft 494 kts 38°
2026-04-20 10:41 -9.97237 45.98425 34199 ft 481 kts 17°
2026-04-20 10:41 -9.95069 45.99045 34530 ft 474 kts
2026-04-20 10:41 -9.91844 45.99289 34618 ft 471 kts 354°
2026-04-20 10:42 -9.88532 45.99061 34807 ft 470 kts 353°
2026-04-20 10:42 -9.85275 45.98816 34951 ft 471 kts 353°
2026-04-20 10:42 -9.81991 45.98575 35019 ft 474 kts 353°
2026-04-20 10:42 -9.78708 45.98348 35169 ft 474 kts 354°
2026-04-20 10:43 -9.75432 45.98135 35437 ft 471 kts 354°
2026-04-20 10:43 -9.72180 45.97933 35749 ft 467 kts 354°
2026-04-20 10:43 -9.68929 45.97738 35995 ft 466 kts 354°
2026-04-20 10:43 -9.65683 45.97545 36119 ft 467 kts 354°
2026-04-20 10:44 -9.62425 45.97352 36203 ft 468 kts 354°
2026-04-20 10:44 -9.59209 45.97162 36373 ft 468 kts 354°
2026-04-20 10:44 -9.55958 45.96970 36642 ft 465 kts 354°
2026-04-20 10:44 -9.52742 45.96780 36918 ft 462 kts 354°
2026-04-20 10:45 -9.49530 45.96589 36882 ft 465 kts 354°
2026-04-20 10:45 -9.43067 45.96204 36917 ft 465 kts 354°
2026-04-20 10:46 -9.36626 45.95822 36937 ft 462 kts 354°
2026-04-20 10:46 -9.30207 45.95440 36938 ft 460 kts 354°
2026-04-20 10:47 -9.23808 45.95060 36904 ft 459 kts 354°
2026-04-20 10:47 -9.17435 45.94681 36866 ft 460 kts 354°
2026-04-20 10:48 -9.11077 45.94303 36868 ft 460 kts 354°
2026-04-20 10:48 -9.04701 45.93925 36920 ft 459 kts 354°
2026-04-20 10:49 -8.98283 45.93544 36947 ft 459 kts 354°
2026-04-20 10:49 -8.91901 45.93165 36922 ft 460 kts 354°
2026-04-20 10:50 -8.85488 45.92784 36891 ft 462 kts 354°
2026-04-20 10:50 -8.79071 45.92404 36866 ft 463 kts 354°
2026-04-20 10:51 -8.72634 45.92022 36869 ft 464 kts 354°
2026-04-20 10:51 -8.66188 45.91641 36879 ft 465 kts 354°
2026-04-20 10:52 -8.59739 45.91259 36897 ft 465 kts 354°
2026-04-20 10:52 -8.53287 45.90877 36912 ft 464 kts 354°
2026-04-20 10:53 -8.46832 45.90495 36915 ft 464 kts 354°
2026-04-20 10:53 -8.40384 45.90113 36905 ft 464 kts 354°
2026-04-20 10:54 -8.33945 45.89733 36892 ft 463 kts 354°
2026-04-20 10:54 -8.27515 45.89352 36884 ft 463 kts 354°
2026-04-20 10:55 -8.21102 45.88973 36902 ft 461 kts 354°
2026-04-20 10:55 -8.14688 45.88594 36876 ft 461 kts 354°
2026-04-20 10:56 -8.08293 45.88216 36880 ft 461 kts 354°
2026-04-20 10:56 -8.01891 45.87838 36897 ft 460 kts 354°
2026-04-20 10:57 -7.95490 45.87460 36893 ft 461 kts 354°
2026-04-20 10:57 -7.89079 45.87082 36890 ft 462 kts 354°
2026-04-20 10:58 -7.82661 45.86703 36886 ft 462 kts 354°
2026-04-20 10:58 -7.76239 45.86324 36897 ft 463 kts 354°
2026-04-20 10:59 -7.69801 45.85944 36879 ft 463 kts 354°
2026-04-20 10:59 -7.63359 45.85565 36890 ft 463 kts 354°
2026-04-20 11:00 -7.56913 45.85185 36879 ft 463 kts 354°
2026-04-20 11:00 -7.50478 45.84806 36887 ft 463 kts 354°
2026-04-20 11:01 -7.44052 45.84428 36879 ft 462 kts 354°
2026-04-20 11:01 -7.37632 45.84050 36878 ft 461 kts 354°
2026-04-20 11:02 -7.31231 45.83673 36898 ft 460 kts 354°
2026-04-20 11:02 -7.24838 45.83297 36873 ft 460 kts 354°
2026-04-20 11:03 -7.18462 45.82922 36890 ft 458 kts 354°
2026-04-20 11:03 -7.12103 45.82548 36885 ft 458 kts 354°
2026-04-20 11:04 -7.05747 45.82174 36876 ft 457 kts 354°
2026-04-20 11:04 -6.99412 45.81802 36887 ft 456 kts 355°
2026-04-20 11:05 -6.93079 45.81429 36878 ft 456 kts 355°
2026-04-20 11:05 -6.86737 45.81057 36880 ft 455 kts 355°
2026-04-20 11:06 -6.80397 45.80684 36884 ft 455 kts 355°
2026-04-20 11:06 -6.74070 45.80313 36877 ft 455 kts 355°
2026-04-20 11:07 -6.67747 45.79942 36882 ft 455 kts 355°
2026-04-20 11:07 -6.61420 45.79570 36878 ft 455 kts 355°
2026-04-20 11:08 -6.55102 45.79199 36875 ft 456 kts 355°
2026-04-20 11:08 -6.48771 45.78828 36884 ft 456 kts 355°
2026-04-20 11:09 -6.42451 45.78457 36870 ft 456 kts 355°
2026-04-20 11:09 -6.36110 45.78086 36872 ft 456 kts 355°
2026-04-20 11:10 -6.29773 45.77714 36875 ft 456 kts 355°
2026-04-20 11:10 -6.23432 45.77343 36864 ft 457 kts 355°
2026-04-20 11:11 -6.17090 45.76971 36875 ft 456 kts 355°
2026-04-20 11:11 -6.10749 45.76600 36871 ft 457 kts 355°
2026-04-20 11:12 -6.04402 45.76228 36861 ft 457 kts 355°
2026-04-20 11:12 -5.98059 45.75857 36873 ft 457 kts 355°
2026-04-20 11:13 -5.91713 45.75485 36864 ft 457 kts 355°
2026-04-20 11:13 -5.85370 45.75114 36865 ft 457 kts 355°
2026-04-20 11:14 -5.79029 45.74744 36870 ft 456 kts 355°
2026-04-20 11:14 -5.72684 45.74372 36860 ft 457 kts 355°
2026-04-20 11:15 -5.66347 45.74002 36868 ft 456 kts 355°
2026-04-20 11:15 -5.60008 45.73631 36865 ft 456 kts 355°
2026-04-20 11:16 -5.53669 45.73261 36861 ft 456 kts 355°
2026-04-20 11:16 -5.47328 45.72890 36871 ft 456 kts 355°
2026-04-20 11:17 -5.40951 45.72518 36860 ft 456 kts 355°
2026-04-20 11:17 -5.34612 45.72147 36854 ft 456 kts 355°
2026-04-20 11:18 -5.29340 45.71839 36864 ft 456 kts 355°
2026-04-20 11:18 -5.23001 45.71469 36860 ft 456 kts 355°
2026-04-20 11:19 -5.15634 45.71039 36858 ft 456 kts 355°
2026-04-20 11:19 -5.10323 45.70729 36867 ft 456 kts 355°
2026-04-20 11:20 -5.03986 45.70359 36856 ft 456 kts 355°
2026-04-20 11:20 -4.97644 45.69989 36859 ft 456 kts 355°
2026-04-20 11:21 -4.91347 45.69622 36865 ft 456 kts 355°
2026-04-20 11:21 -4.85019 45.69253 36852 ft 456 kts 355°
2026-04-20 11:22 -4.78675 45.68883 36858 ft 456 kts 355°
2026-04-20 11:22 -4.72346 45.68514 36861 ft 456 kts 355°
2026-04-20 11:23 -4.66012 45.68145 36852 ft 456 kts 355°
2026-04-20 11:23 -4.59686 45.67776 36860 ft 455 kts 355°
2026-04-20 11:24 -4.53356 45.67407 36859 ft 455 kts 355°
2026-04-20 11:24 -4.47034 45.67039 36851 ft 455 kts 355°
2026-04-20 11:25 -4.40716 45.66671 36857 ft 455 kts 355°
2026-04-20 11:25 -4.34396 45.66303 36855 ft 455 kts 355°
2026-04-20 11:26 -4.28084 45.65935 36849 ft 454 kts 355°
2026-04-20 11:26 -4.21769 45.65567 36859 ft 454 kts 355°
2026-04-20 11:27 -4.15465 45.65200 36852 ft 454 kts 355°
2026-04-20 11:27 -4.09121 45.64832 36850 ft 454 kts 355°
2026-04-20 11:28 -4.02821 45.64465 36856 ft 453 kts 355°
2026-04-20 11:28 -3.96520 45.64099 36844 ft 453 kts 355°
2026-04-20 11:29 -3.90231 45.63733 36848 ft 453 kts 355°
2026-04-20 11:29 -3.83941 45.63367 36855 ft 452 kts 355°
2026-04-20 11:30 -3.77692 45.63004 36844 ft 453 kts 356°
2026-04-20 11:30 -3.71365 45.62636 36852 ft 452 kts 355°
2026-04-20 11:31 -3.65080 45.62271 36857 ft 452 kts 355°
2026-04-20 11:31 -3.58794 45.61905 36847 ft 453 kts 355°
2026-04-20 11:32 -3.52513 45.61540 36851 ft 452 kts 356°
2026-04-20 11:32 -3.46220 45.61175 36852 ft 453 kts 356°
2026-04-20 11:33 -3.39930 45.60809 36846 ft 453 kts 356°
2026-04-20 11:33 -3.33635 45.60444 36853 ft 453 kts 355°
2026-04-20 11:34 -3.27339 45.60078 36852 ft 453 kts 356°
2026-04-20 11:34 -3.21035 45.59712 36846 ft 454 kts 356°
2026-04-20 11:35 -3.14730 45.59346 36856 ft 454 kts 356°
2026-04-20 11:35 -3.08422 45.58979 36846 ft 454 kts 356°
2026-04-20 11:36 -3.02105 45.58613 36844 ft 455 kts 356°
2026-04-20 11:36 -2.95788 45.58246 36851 ft 455 kts 356°
2026-04-20 11:37 -2.89468 45.57879 36841 ft 455 kts 356°
2026-04-20 11:37 -2.79973 45.57328 36848 ft 455 kts 356°
2026-04-20 11:38 -2.73650 45.56961 36842 ft 456 kts 356°
2026-04-20 11:38 -2.67296 45.56593 36842 ft 456 kts 356°
2026-04-20 11:39 -2.60976 45.56226 36848 ft 456 kts 356°
2026-04-20 11:39 -2.54609 45.55857 36838 ft 456 kts 356°
2026-04-20 11:40 -2.48266 45.55489 36847 ft 456 kts 356°
2026-04-20 11:40 -2.41934 45.55122 36844 ft 456 kts 356°
2026-04-20 11:41 -2.35598 45.54754 36839 ft 456 kts 356°
2026-04-20 11:41 -2.29307 45.54389 36847 ft 455 kts 356°
2026-04-20 11:42 -2.22977 45.54022 36838 ft 455 kts 356°
2026-04-20 11:42 -2.16657 45.53656 36838 ft 455 kts 356°
2026-04-20 11:43 -2.10337 45.53289 36845 ft 455 kts 356°
2026-04-20 11:43 -2.04023 45.52911 36831 ft 454 kts 354°
2026-04-20 11:44 -1.97935 45.51339 36919 ft 450 kts 336°
2026-04-20 11:44 -1.95143 45.49907 36763 ft 454 kts 328°
2026-04-20 11:44 -1.92478 45.48254 37018 ft 448 kts 328°
2026-04-20 11:45 -1.89782 45.46578 36810 ft 453 kts 328°
2026-04-20 11:45 -1.87139 45.44945 36912 ft 451 kts 328°
2026-04-20 11:45 -1.81772 45.41666 36862 ft 452 kts 329°
2026-04-20 11:46 -1.76343 45.38378 36848 ft 453 kts 329°
2026-04-20 11:46 -1.70939 45.35111 36840 ft 454 kts 329°
2026-04-20 11:47 -1.65565 45.31862 36835 ft 454 kts 329°
2026-04-20 11:47 -1.60153 45.28589 36830 ft 455 kts 329°
2026-04-20 11:48 -1.54701 45.25292 36830 ft 455 kts 329°
2026-04-20 11:48 -1.49320 45.22038 36839 ft 455 kts 329°
2026-04-20 11:49 -1.43898 45.18759 36850 ft 455 kts 329°
2026-04-20 11:49 -1.38479 45.15481 36831 ft 455 kts 329°
2026-04-20 11:50 -1.33036 45.12191 36846 ft 455 kts 329°
2026-04-20 11:50 -1.27635 45.08924 36829 ft 455 kts 329°
2026-04-20 11:51 -1.22225 45.05653 36850 ft 454 kts 329°
2026-04-20 11:51 -1.16814 45.02382 36835 ft 454 kts 329°
2026-04-20 11:52 -1.11361 44.99192 36839 ft 454 kts 330°
2026-04-20 11:52 -1.05889 44.96050 36843 ft 454 kts 330°
2026-04-20 11:53 -1.00418 44.92902 36835 ft 454 kts 330°
2026-04-20 11:53 -0.94944 44.89739 36846 ft 453 kts 330°
2026-04-20 11:54 -0.89449 44.86559 36841 ft 454 kts 330°
2026-04-20 11:54 -0.83994 44.83402 36837 ft 454 kts 330°
2026-04-20 11:55 -0.78538 44.80245 36844 ft 454 kts 330°
2026-04-20 11:55 -0.73072 44.77082 36836 ft 454 kts 330°
2026-04-20 11:56 -0.68527 44.74452 36844 ft 454 kts 330°
2026-04-20 11:56 -0.63051 44.71284 36847 ft 455 kts 330°
2026-04-20 11:57 -0.57569 44.68112 36841 ft 455 kts 330°
2026-04-20 11:57 -0.52054 44.64921 36850 ft 456 kts 330°
2026-04-20 11:58 -0.46578 44.61753 36844 ft 456 kts 330°
2026-04-20 11:58 -0.41110 44.58589 36843 ft 456 kts 330°
2026-04-20 11:59 -0.35599 44.55401 36845 ft 456 kts 331°
2026-04-20 11:59 -0.30095 44.52217 36840 ft 457 kts 331°
2026-04-20 12:00 -0.24609 44.49043 36847 ft 457 kts 331°
2026-04-20 12:00 -0.19075 44.45841 36843 ft 457 kts 331°
2026-04-20 12:01 -0.13584 44.42665 36840 ft 457 kts 331°
2026-04-20 12:01 -0.08082 44.39482 36854 ft 457 kts 331°
2026-04-20 12:02 -0.02591 44.36305 36840 ft 457 kts 331°
2026-04-20 12:02 0.02926 44.33113 36840 ft 457 kts 331°
2026-04-20 12:03 0.08407 44.29942 36844 ft 457 kts 331°
2026-04-20 12:03 0.13909 44.26759 36830 ft 457 kts 331°
2026-04-20 12:04 0.19443 44.23557 36840 ft 457 kts 331°
2026-04-20 12:04 0.24923 44.20386 36842 ft 457 kts 331°
2026-04-20 12:05 0.30444 44.17191 36827 ft 457 kts 331°
2026-04-20 12:05 0.36075 44.14190 36821 ft 457 kts 335°
2026-04-20 12:06 0.41811 44.11510 36342 ft 463 kts 336°
2026-04-20 12:06 0.44787 44.10124 35712 ft 463 kts 336°
2026-04-20 12:06 0.47668 44.08767 35126 ft 460 kts 336°
2026-04-20 12:07 0.50587 44.07381 34431 ft 464 kts 336°
2026-04-20 12:07 0.53499 44.05991 33571 ft 468 kts 336°
2026-04-20 12:07 0.56427 44.04592 33132 ft 463 kts 336°
2026-04-20 12:07 0.59368 44.03188 32004 ft 473 kts 336°
2026-04-20 12:08 0.62292 44.01794 31430 ft 466 kts 337°
2026-04-20 12:08 0.65397 44.00882 30751 ft 464 kts 355°
2026-04-20 12:08 0.68626 44.00868 29933 ft 465 kts 12°
2026-04-20 12:08 0.71677 44.01744 29301 ft 456 kts 23°
2026-04-20 12:09 0.74417 44.03350 28880 ft 448 kts 37°
2026-04-20 12:09 0.76804 44.05370 28001 ft 449 kts 45°
2026-04-20 12:09 0.78936 44.07519 27393 ft 445 kts 46°
2026-04-20 12:09 0.81055 44.09708 27149 ft 432 kts 46°
2026-04-20 12:10 0.83164 44.11881 26626 ft 430 kts 46°
2026-04-20 12:10 0.85274 44.14029 25866 ft 433 kts 46°
2026-04-20 12:10 0.87367 44.16133 25342 ft 430 kts 46°
2026-04-20 12:10 0.89489 44.18245 24958 ft 424 kts 45°
2026-04-20 12:11 0.91602 44.20336 24367 ft 425 kts 45°
2026-04-20 12:11 0.93706 44.22410 23811 ft 424 kts 45°
2026-04-20 12:11 0.95775 44.24448 23309 ft 422 kts 45°
2026-04-20 12:11 0.97869 44.26511 22695 ft 421 kts 45°
2026-04-20 12:12 0.99941 44.28550 22157 ft 418 kts 45°
2026-04-20 12:12 1.01998 44.30576 21635 ft 415 kts 45°
2026-04-20 12:12 1.04075 44.32621 21099 ft 412 kts 45°
2026-04-20 12:12 1.06106 44.34622 20588 ft 410 kts 46°
2026-04-20 12:13 1.08127 44.36614 20078 ft 408 kts 46°
2026-04-20 12:13 1.10137 44.38595 19546 ft 407 kts 46°
2026-04-20 12:13 1.12155 44.40584 19034 ft 405 kts 46°
2026-04-20 12:13 1.14165 44.42565 18506 ft 405 kts 46°
2026-04-20 12:14 1.16162 44.44534 17970 ft 404 kts 46°
2026-04-20 12:14 1.18156 44.46499 17402 ft 402 kts 46°
2026-04-20 12:14 1.20138 44.48454 16883 ft 400 kts 46°
2026-04-20 12:14 1.22108 44.50395 16381 ft 397 kts 46°
2026-04-20 12:15 1.24060 44.52318 15882 ft 394 kts 46°
2026-04-20 12:15 1.26028 44.54259 15376 ft 391 kts 46°
2026-04-20 12:15 1.27934 44.56137 14892 ft 388 kts 46°
2026-04-20 12:15 1.29856 44.58032 14401 ft 386 kts 46°
2026-04-20 12:16 1.31755 44.59904 13899 ft 384 kts 46°
2026-04-20 12:16 1.33674 44.61796 13363 ft 381 kts 46°
2026-04-20 12:16 1.35551 44.63647 12845 ft 379 kts 46°
2026-04-20 12:16 1.37414 44.65484 12348 ft 375 kts 46°
2026-04-20 12:17 1.39261 44.67304 11853 ft 372 kts 45°
2026-04-20 12:17 1.41096 44.69114 11379 ft 370 kts 45°
2026-04-20 12:17 1.42924 44.70916 10908 ft 367 kts 45°
2026-04-20 12:17 1.44733 44.72700 10686 ft 358 kts 45°
2026-04-20 12:18 1.46474 44.74416 10490 ft 348 kts 45°
2026-04-20 12:18 1.48169 44.76087 10366 ft 338 kts 45°
2026-04-20 12:18 1.49813 44.77709 10222 ft 329 kts 45°
2026-04-20 12:18 1.51416 44.79289 10085 ft 320 kts 45°
2026-04-20 12:19 1.52982 44.80833 9944 ft 309 kts 45°
2026-04-20 12:19 1.54475 44.82306 9805 ft 294 kts 45°
2026-04-20 12:19 1.55888 44.83699 9756 ft 277 kts 45°
2026-04-20 12:19 1.57277 44.85070 9272 ft 278 kts 45°
2026-04-20 12:20 1.58642 44.86416 8880 ft 275 kts 45°
2026-04-20 12:20 1.59986 44.87741 8623 ft 268 kts 45°
2026-04-20 12:20 1.61301 44.89039 8341 ft 263 kts 44°
2026-04-20 12:20 1.62595 44.90315 8058 ft 259 kts 44°
2026-04-20 12:21 1.63865 44.91568 7783 ft 255 kts 44°
2026-04-20 12:21 1.65117 44.92803 7508 ft 251 kts 44°
2026-04-20 12:21 1.66361 44.94030 7262 ft 252 kts 44°
2026-04-20 12:21 1.67622 44.95274 7008 ft 259 kts 44°
2026-04-20 12:22 1.68929 44.96563 6712 ft 267 kts 44°
2026-04-20 12:22 1.70249 44.97865 6435 ft 264 kts 44°
2026-04-20 12:22 1.71536 44.99135 6144 ft 257 kts 44°
2026-04-20 12:22 1.72793 45.00376 5857 ft 251 kts 44°
2026-04-20 12:23 1.74015 45.01581 5587 ft 245 kts 44°
2026-04-20 12:23 1.75236 45.02785 5327 ft 245 kts 44°
2026-04-20 12:23 1.76458 45.03990 5076 ft 249 kts 44°
2026-04-20 12:23 1.77707 45.05222 4826 ft 259 kts 44°
2026-04-20 12:24 1.78999 45.06496 4523 ft 262 kts 44°
2026-04-20 12:24 1.80289 45.07769 4229 ft 254 kts 44°
2026-04-20 12:24 1.81530 45.08995 3958 ft 248 kts 44°
2026-04-20 12:24 1.82736 45.10185 3720 ft 238 kts 44°
2026-04-20 12:25 1.83866 45.11300 3645 ft 218 kts 44°
2026-04-20 12:25 1.84901 45.12321 3508 ft 201 kts 44°
2026-04-20 12:25 1.85858 45.13266 3433 ft 189 kts 45°
2026-04-20 12:25 1.86794 45.14190 3380 ft 189 kts 45°
2026-04-20 12:26 1.87724 45.15107 3269 ft 186 kts 45°
2026-04-20 12:26 1.88634 45.16005 3255 ft 183 kts 45°
2026-04-20 12:26 1.89558 45.16917 3071 ft 191 kts 45°
2026-04-20 12:26 1.90510 45.17856 2896 ft 191 kts 45°
2026-04-20 12:27 1.91438 45.18771 2702 ft 180 kts 45°
2026-04-20 12:27 1.92284 45.19604 2521 ft 164 kts 46°
2026-04-20 12:27 1.93057 45.20374 2384 ft 156 kts 49°
2026-04-20 12:27 1.93758 45.21199 2155 ft 155 kts 52°
2026-04-20 12:28 1.94436 45.22026 1940 ft 153 kts 54°
2026-04-20 12:28 1.95105 45.22845 1733 ft 151 kts 54°
2026-04-20 12:28 1.95774 45.23654 1526 ft 151 kts 52°
2026-04-20 12:28 1.96457 45.24475 1327 ft 152 kts 53°
2026-04-20 12:29 1.97135 45.25290 1118 ft 153 kts 53°
2026-04-20 12:29 1.97817 45.26109 902 ft 153 kts 53°
2026-04-20 12:29 1.98497 45.26925 695 ft 154 kts 53°
2026-04-20 12:29 1.99170 45.27730 483 ft 148 kts 53°
2026-04-20 12:30 1.99835 45.28529 276 ft 151 kts 53°
2026-04-20 12:30 2.00501 45.29329 51 ft 143 kts 51°
2026-04-20 12:30 2.01063 45.30002 27 ft 88 kts 50°
2026-04-20 12:30 2.01218 45.30154 28 ft 18 kts 359°
2026-04-20 12:31 2.01284 45.30143 28 ft 0 kts 349°